Volver al catálogo

OPS 4682 DEB

ActivoPO
NORAD 19185·DEBRIS·🇺🇸 United States

Lanzado Apr 3, 1965 desde Vandenberg Space Force Base

Loading…

Próximos Pases (próximas 24 horas)

TLE

ActualizadoSource: Space-Track

Época: Sep 14, 2026, 01:48 UTC

1 19185U 65027AR  26257.07543131 -.00000026  00000-0 -11574-3 0  9991
2 19185  90.2539   6.4201 0035203 195.8625 340.6181 12.97804534961637

Sigue OPS 4682 DEB en tiempo real con AllMySat

Download on the App Store